Bismarck, ND

10:34 AM CDT on August 28, 2016 (GMT -0500)
Bismarck Municipal

Weather History for KBIS - December, 2010

Change the Weather History Date:

Thursday, December 23, 2010

  Actual Average Record
Temperature  
Mean Temperature 21 °F 14 °F  
Max Temperature 23 °F 24 °F 55 °F (1881)
Min Temperature 18 °F 4 °F -40 °F (1983)
Degree Days  
Heating Degree Days 44 51  
Month to date heating degree days 1246 1101  
Since 1 July heating degree days 3113 3087  
Cooling Degree Days 0 0  
Month to date cooling degree days 0 0  
Year to date cooling degree days 507 520  
Moisture  
Dew Point 18 °F    
Average Humidity 83    
Maximum Humidity 92    
Minimum Humidity 73    
Precipitation  
Precipitation 0.12 in 0.01 in 0.18 in (1945)
Month to date precipitation 1.37 0.35  
Year to date precipitation 23.15 17.71  
Snow  
Snow 1.60 in 0.30 in 5.00 in (1933)
Month to date snowfall 19.9 6.6  
Since 1 July snowfall 33.4 17.8  
Snow Depth 13.00 in    
Sea Level Pressure  
Sea Level Pressure 30.30 in    
Wind  
Wind Speed 11 mph (ESE)    
Max Wind Speed 18 mph    
Max Gust Speed 23 mph    
Visibility 4 miles    
Events Snow    
T = Trace of Precipitation, MM = Missing Value Source: NWS Daily Summary

Daily Weather History Graph

Daily Weather History Graph

Search for Another Location

Airport or City:

Trip Planner

Search our weather history database for the weather conditions in past years. The results will help you decide how hot, cold, wet, or windy it might be!

Date:

Astronomy

Dec. 23, 2010 Rise Set
Actual Time 8:26 AM CST 4:58 PM CST
Civil Twilight 7:50 AM CST 5:33 PM CST
Nautical Twilight 7:12 AM CST 6:12 PM CST
Astronomical Twilight 6:35 AM CST 6:49 PM CST
Moon 8:03 PM CST (12/23) 10:05 AM CST (12/23)
Length of Visible Light 9h 43m
Length of Day
8h 32m
Waning Gibbous, 93% of the Moon is Illuminated
Dec 23
Waning Gibbous
Dec 27
Last Quarter
Jan 4
New
Jan 12
First Quarter
Jan 19
Full

Hourly Weather History & Observations

Time (CST) Temp. Windchill Dew Point Humidity Pressure Visibility Wind Dir Wind Speed Gust Speed Precip Events Conditions
12:25 AM 17.6 °F 3.7 °F 15.8 °F 93% 30.31 in 10.0 mi ESE 13.8 mph - 0.00 in   Overcast
12:52 AM 19.0 °F 5.0 °F 15.1 °F 85% 30.41 in 10.0 mi ESE 15.0 mph - 0.00 in   Overcast
1:10 AM 19.4 °F 6.0 °F 15.8 °F 86% 30.30 in 8.0 mi ESE 13.8 mph - 0.00 in Snow Light Snow
1:20 AM 19.4 °F 7.2 °F 15.8 °F 86% 30.30 in 8.0 mi ESE 11.5 mph - 0.00 in Snow Light Snow
1:52 AM 19.0 °F 5.0 °F 14.0 °F 81% 30.38 in 10.0 mi ESE 15.0 mph - 0.00 in   Overcast
2:52 AM 19.0 °F 5.6 °F 12.9 °F 77% 30.39 in 10.0 mi ESE 13.8 mph - N/A   Overcast
3:52 AM 19.9 °F 5.7 °F 15.1 °F 81% 30.39 in 10.0 mi SE 16.1 mph - N/A   Overcast
4:52 AM 19.9 °F 7.3 °F 17.1 °F 89% 30.38 in 10.0 mi ESE 12.7 mph - N/A   Overcast
5:52 AM 19.9 °F 7.9 °F 17.1 °F 89% 30.36 in 10.0 mi ESE 11.5 mph - N/A   Overcast
6:52 AM 19.9 °F 7.3 °F 18.0 °F 92% 30.36 in 10.0 mi ESE 12.7 mph - N/A   Overcast
7:52 AM 21.0 °F 8.6 °F 18.0 °F 88% 30.35 in 10.0 mi ESE 12.7 mph - N/A   Overcast
8:52 AM 21.0 °F 7.6 °F 18.0 °F 88% 30.34 in 9.0 mi SE 15.0 mph - N/A   Overcast
9:48 AM 21.2 °F 7.8 °F 17.6 °F 86% 30.24 in 4.0 mi ESE 15.0 mph - 0.00 in Snow Light Snow
9:52 AM 21.0 °F 8.6 °F 18.0 °F 88% 30.34 in 3.0 mi ESE 12.7 mph - 0.00 in Snow Light Snow
10:00 AM 21.2 °F 9.5 °F 19.4 °F 93% 30.24 in 2.5 mi ESE 11.5 mph - 0.00 in Snow Light Snow
10:14 AM 21.2 °F 8.3 °F 19.4 °F 93% 30.24 in 1.5 mi ESE 13.8 mph - 0.00 in Snow Light Snow
10:37 AM 21.2 °F 9.5 °F 19.4 °F 93% 30.25 in 2.5 mi ESE 11.5 mph - 0.00 in Snow Light Snow
10:50 AM 21.2 °F 9.5 °F 19.4 °F 93% 30.25 in 1.8 mi ESE 11.5 mph - 0.00 in Snow Light Snow
10:52 AM 21.9 °F 10.4 °F 19.0 °F 89% 30.35 in 1.8 mi SE 11.5 mph - 0.00 in Snow Light Snow
11:38 AM 21.2 °F 9.5 °F 19.4 °F 93% 30.24 in 2.0 mi ESE 11.5 mph - 0.00 in Snow Light Snow
11:52 AM 23.0 °F 11.1 °F 19.0 °F 85% 30.32 in 2.0 mi ESE 12.7 mph - 0.01 in Snow Light Snow
12:02 PM 23.0 °F 10.6 °F 19.4 °F 86% 30.23 in 2.5 mi SE 13.8 mph - 0.00 in Snow Light Snow
12:22 PM 23.0 °F 11.7 °F 19.4 °F 86% 30.24 in 2.5 mi SE 11.5 mph - 0.00 in Snow Light Snow
12:35 PM 23.0 °F 11.7 °F 19.4 °F 86% 30.23 in 3.0 mi SE 11.5 mph - 0.00 in Snow Light Snow
12:49 PM 23.0 °F 11.7 °F 19.4 °F 86% 30.23 in 2.0 mi SE 11.5 mph - 0.00 in Snow Light Snow
12:52 PM 23.0 °F 9.6 °F 19.9 °F 88% 30.31 in 2.0 mi SE 16.1 mph - 0.00 in Snow Light Snow
1:01 PM 23.0 °F 11.1 °F 19.4 °F 86% 30.22 in 1.8 mi SE 12.7 mph - 0.00 in Snow Light Snow
1:19 PM 23.0 °F 10.1 °F 19.4 °F 86% 30.21 in 1.8 mi SE 15.0 mph - 0.00 in Snow Light Snow
1:33 PM 23.0 °F 10.6 °F 19.4 °F 86% 30.21 in 5.0 mi SE 13.8 mph - 0.00 in   Overcast
1:45 PM 23.0 °F 11.1 °F 19.4 °F 86% 30.21 in 6.0 mi SE 12.7 mph - 0.00 in   Overcast
1:52 PM 23.0 °F 10.6 °F 19.9 °F 88% 30.30 in 6.0 mi SE 13.8 mph - 0.00 in   Overcast
2:48 PM 23.0 °F 11.7 °F 19.4 °F 86% 30.21 in 2.5 mi SE 11.5 mph - 0.00 in Snow Light Snow
2:52 PM 23.0 °F 11.7 °F 19.9 °F 88% 30.30 in 2.0 mi SE 11.5 mph - 0.01 in Snow Light Snow
3:13 PM 23.0 °F 13.9 °F 19.4 °F 86% 30.22 in 3.0 mi ESE 8.1 mph - 0.00 in Snow Light Snow
3:48 PM 23.0 °F 12.4 °F 19.4 °F 86% 30.23 in 2.0 mi ESE 10.4 mph - 0.00 in Snow Light Snow
3:52 PM 23.0 °F 13.1 °F 19.9 °F 88% 30.32 in 1.8 mi ESE 9.2 mph - 0.00 in Snow Light Snow
3:59 PM 23.0 °F 12.4 °F 19.4 °F 86% 30.23 in 2.0 mi ESE 10.4 mph - 0.00 in Snow Light Snow
4:37 PM 23.0 °F 13.9 °F 19.4 °F 86% 30.24 in 2.0 mi East 8.1 mph - 0.00 in Snow Light Snow
4:44 PM 23.0 °F 13.9 °F 19.4 °F 86% 30.25 in 1.8 mi East 8.1 mph - 0.01 in Snow Light Snow
4:52 PM 23.0 °F 14.7 °F 19.9 °F 88% 30.34 in 1.5 mi East 6.9 mph - 0.01 in Snow Light Snow
5:21 PM 21.2 °F 11.7 °F 19.4 °F 93% 30.25 in 2.5 mi East 8.1 mph - 0.00 in Snow Light Snow
5:41 PM 21.2 °F 12.6 °F 19.4 °F 93% 30.26 in 3.0 mi East 6.9 mph - 0.00 in Snow Light Snow
5:52 PM 21.9 °F 12.5 °F 19.9 °F 92% 30.35 in 4.0 mi East 8.1 mph - 0.01 in Snow Light Snow
6:52 PM 21.9 °F 11.7 °F 19.9 °F 92% 30.36 in 4.0 mi East 9.2 mph - 0.00 in Snow Light Snow
7:24 PM 21.2 °F 10.1 °F 19.4 °F 93% 30.27 in 2.0 mi East 10.4 mph - 0.00 in Snow Light Snow
7:37 PM 21.2 °F 8.9 °F 19.4 °F 93% 30.27 in 1.8 mi East 12.7 mph - 0.00 in Snow Light Snow
7:44 PM 21.2 °F 9.5 °F 19.4 °F 93% 30.27 in 2.0 mi East 11.5 mph - 0.00 in Snow Light Snow
7:52 PM 21.0 °F 9.9 °F 19.9 °F 96% 30.36 in 2.0 mi East 10.4 mph - 0.00 in Snow Light Snow
8:01 PM 21.2 °F 10.1 °F 19.4 °F 93% 30.27 in 1.8 mi East 10.4 mph - 0.01 in Snow Light Snow
8:11 PM 21.2 °F 10.1 °F 19.4 °F 93% 30.27 in 2.0 mi ENE 10.4 mph - 0.01 in Snow Light Snow
8:26 PM 19.4 °F 7.2 °F 17.6 °F 93% 30.28 in 2.5 mi East 11.5 mph - 0.01 in Snow Light Snow
8:38 PM 19.4 °F 6.6 °F 17.6 °F 93% 30.28 in 3.0 mi East 12.7 mph - 0.01 in Snow Light Snow
8:52 PM 19.9 °F 8.6 °F 18.0 °F 92% 30.38 in 4.0 mi ENE 10.4 mph - 0.01 in Snow Light Snow
9:03 PM 19.4 °F 6.6 °F 17.6 °F 93% 30.28 in 2.5 mi East 12.7 mph - 0.00 in Snow Light Snow
9:14 PM 19.4 °F 6.6 °F 17.6 °F 93% 30.28 in 1.2 mi East 12.7 mph - 0.01 in Snow Light Snow
9:25 PM 19.4 °F 7.2 °F 17.6 °F 93% 30.29 in 1.0 mi East 11.5 mph - 0.01 in Snow Light Snow
9:52 PM 19.9 °F 8.6 °F 18.0 °F 92% 30.38 in 1.2 mi East 10.4 mph - 0.02 in Snow Light Snow
10:52 PM 19.9 °F 10.1 °F 18.0 °F 92% 30.40 in 1.2 mi ENE 8.1 mph - 0.03 in Snow Light Snow
11:01 PM 19.4 °F 10.4 °F 17.6 °F 93% 30.31 in 1.5 mi ENE 6.9 mph - 0.00 in Snow Light Snow
11:15 PM 19.4 °F 10.4 °F 17.6 °F 93% 30.31 in 2.0 mi ENE 6.9 mph - 0.01 in Snow Light Snow
11:26 PM 19.4 °F 10.4 °F 17.6 °F 93% 30.31 in 1.5 mi East 6.9 mph - 0.01 in Snow Light Snow
11:52 PM 19.9 °F 12.1 °F 18.0 °F 92% 30.40 in 1.8 mi East 5.8 mph - 0.01 in Snow Light Snow